Weather in Mannheim

Germany     49°28′32″N   8°28′44″E
temp.,
°C
wind,
m/s
gust,
m/s
humid.,
%
clouds,
%
prec.,
mm/h
press.,
hPa
HPBL,
m
1 august, sun
sun123:00+19wnw2663100 0.1 1010234
02:00+18nw1274100 0.1 1010148
05:00+16nw1183100 0.8 101048
08:00+16nw1380100 1.3 1010231
11:00+21wnw3453100 0.1 10101247
14:00+23w344289 0.1 10101938
17:00+23w4537100 0.0 10102165
20:00+21w464899 0.0 10101312
2 august, mon
mon223:00+18w2767100 0.0 1012475
02:00+16wsw267113 0.1 1013412
05:00+15ssw13776 0.0 1014160
08:00+16sw137050 0.0 1015412
11:00+18sw346063 0.0 1016856
14:00+22w355382 1.0 10151592
17:00+22w45575 1.9 10141393
20:00+19wnw25795 3.9 1014217
3 august, tue
tue323:00+17sse118414 0.7 101527
02:00+15s24905 0.7 1015132
05:00+14sse2694100 0.4 1015201
08:00+15sse3788100 0.4 1015292
11:00+17sw3981100 0.9 1015562
14:00+16sse3886100 3.1 1014587
17:00+20wsw35685 1.2 10131099
20:00+18wsw118096 2.7 101327
4 august, wed
wed423:00+16wsw1185100 0.7 101423
02:00+16ssw1184100 1.3 101412
05:00+16ssw2386100 0.7 101371
08:00+14sw1394100 2.9 1014203
11:00+15s2393100 0.7 1014282
14:00+16ssw2486100 1.0 1015556
17:00+17sw2475100 0.3 1015815
20:00+16wnw248673 0.9 1015335
5 august, thu
thu523:00+14ssw01915 0.1 101611
02:00+13s1193100 0.1 101611
05:00+13s11957 0.0 101415
08:00+14se1191100 0.1 1015102
11:00+18s2368100 0.0 1014763
14:00+17s3571100 0.0 1013598
17:00+19sw356530 0.0 1012886
20:00+20sw35661 0.1 1011802